Sheldon, IA

12:55 AM CST on December 15, 2017 (GMT -0600)
Sheldon Municipal

Weather History for KSHL - October, 2012

Change the Weather History Date:

Friday, October 26, 2012

  Actual Average Record
Temperature  
Mean Temperature 35 °F -  
Max Temperature 37 °F 59 °F 79 °F (1955)
Min Temperature 33 °F 35 °F 18 °F (1988)
Degree Days  
Heating Degree Days 30    
Moisture  
Dew Point 25 °F    
Average Humidity 68    
Maximum Humidity 81    
Minimum Humidity 56    
Precipitation  
Precipitation 0.00 in - - ()
Sea Level Pressure  
Sea Level Pressure 30.38 in    
Wind  
Wind Speed 12 mph (WNW)    
Max Wind Speed 17 mph    
Max Gust Speed 22 mph    
Visibility 10 miles    
Events      
Averages and records for this station are not official NWS values.
T = Trace of Precipitation, MM = Missing Value Source: NWS Daily Summary

Daily Weather History Graph

Daily Weather History Graph

Search for Another Location

Airport or City:

Trip Planner

Search our weather history database for the weather conditions in past years. The results will help you decide how hot, cold, wet, or windy it might be!

Date:

Astronomy

Oct. 26, 2012 Rise Set
Actual Time 7:51 AM CDT 6:22 PM CDT
Civil Twilight 7:21 AM CDT 6:51 PM CDT
Nautical Twilight 6:48 AM CDT 7:25 PM CDT
Astronomical Twilight 6:15 AM CDT 7:58 PM CDT
Moon 4:42 PM CDT (10/26) 4:44 AM CDT (10/26)
Length of Visible Light 11h 29m
Length of Day
10h 31m
Waxing Gibbous, 91% of the Moon is Illuminated
Oct 26
Waxing Gibbous
Oct 29
Full
Nov 6
Last Quarter
Nov 13
New
Nov 20
First Quarter

Hourly Weather History & Observations

Time (CDT) Temp. Windchill Dew Point Humidity Pressure Visibility Wind Dir Wind Speed Gust Speed Precip Events Conditions
12:15 AM 35.6 °F 27.5 °F 28.4 °F 75% 30.28 in 10.0 mi NW 11.5 mph - N/A   Overcast
12:35 AM 35.6 °F 28.6 °F 28.4 °F 75% 30.28 in 10.0 mi NW 9.2 mph 17.3 mph N/A   Overcast
1:15 AM 35.6 °F 26.2 °F 26.6 °F 70% 30.29 in 10.0 mi NW 15.0 mph - N/A   Overcast
1:35 AM 35.6 °F 26.6 °F 26.6 °F 70% 30.28 in 10.0 mi NW 13.8 mph - N/A   Overcast
1:55 AM 35.6 °F 28.0 °F 26.6 °F 70% 30.29 in 10.0 mi NW 10.4 mph 16.1 mph N/A   Overcast
2:15 AM 35.6 °F 26.6 °F 26.6 °F 70% 30.29 in 10.0 mi NW 13.8 mph 19.6 mph N/A   Overcast
2:35 AM 33.8 °F 27.0 °F 26.6 °F 75% 30.30 in 10.0 mi NW 8.1 mph - N/A   Overcast
2:55 AM 33.8 °F 24.3 °F 24.8 °F 70% 30.30 in 10.0 mi NNW 13.8 mph 20.7 mph N/A   Overcast
3:15 AM 33.8 °F 26.4 °F 26.6 °F 75% 30.31 in 10.0 mi NW 9.2 mph - N/A   Overcast
3:35 AM 33.8 °F 26.4 °F 28.4 °F 81% 30.31 in 10.0 mi NW 9.2 mph - N/A   Overcast
3:55 AM 33.8 °F 24.8 °F 26.6 °F 75% 30.31 in 10.0 mi NW 12.7 mph 18.4 mph N/A   Overcast
4:15 AM 33.8 °F 24.3 °F 26.6 °F 75% 30.32 in 10.0 mi NW 13.8 mph 19.6 mph N/A   Overcast
4:35 AM 33.8 °F 23.9 °F 26.6 °F 75% 30.33 in 10.0 mi NW 15.0 mph - N/A   Overcast
4:55 AM 33.8 °F 24.3 °F 24.8 °F 70% 30.34 in 10.0 mi NW 13.8 mph 20.7 mph N/A   Overcast
5:15 AM 33.8 °F 24.3 °F 24.8 °F 70% 30.34 in 10.0 mi NW 13.8 mph - N/A   Overcast
5:35 AM 33.8 °F 23.2 °F 24.8 °F 70% 30.35 in 10.0 mi NW 17.3 mph - N/A   Overcast
5:55 AM 33.8 °F 23.9 °F 24.8 °F 70% 30.36 in 10.0 mi NW 15.0 mph 20.7 mph N/A   Overcast
6:15 AM 33.8 °F 24.3 °F 24.8 °F 70% 30.37 in 10.0 mi NW 13.8 mph 20.7 mph N/A   Overcast
6:35 AM 33.8 °F 24.8 °F 24.8 °F 70% 30.38 in 10.0 mi WNW 12.7 mph - N/A   Overcast
6:55 AM 33.8 °F 24.8 °F 24.8 °F 70% 30.39 in 10.0 mi WNW 12.7 mph 18.4 mph N/A   Overcast
7:15 AM 33.8 °F 24.3 °F 24.8 °F 70% 30.40 in 10.0 mi WNW 13.8 mph - N/A   Overcast
7:55 AM 33.8 °F 25.8 °F 24.8 °F 70% 30.40 in 10.0 mi WNW 10.4 mph - N/A   Overcast
8:55 AM 33.8 °F 25.3 °F 24.8 °F 70% 30.42 in 10.0 mi NW 11.5 mph - N/A   Overcast
9:15 AM 33.8 °F 24.3 °F 24.8 °F 70% 30.42 in 10.0 mi NW 13.8 mph 20.7 mph N/A   Overcast
9:35 AM 33.8 °F 26.4 °F 24.8 °F 70% 30.43 in 10.0 mi NW 9.2 mph 16.1 mph N/A   Overcast
9:55 AM 35.6 °F 27.5 °F 24.8 °F 65% 30.43 in 10.0 mi NW 11.5 mph - N/A   Overcast
10:15 AM 35.6 °F 26.6 °F 24.8 °F 65% 30.43 in 10.0 mi NW 13.8 mph - N/A   Overcast
10:35 AM 35.6 °F 27.1 °F 24.8 °F 65% 30.44 in 10.0 mi NW 12.7 mph 19.6 mph N/A   Overcast
10:55 AM 35.6 °F 25.5 °F 23.0 °F 60% 30.44 in 10.0 mi NNW 17.3 mph - N/A   Overcast
11:15 AM 35.6 °F 25.9 °F 24.8 °F 65% 30.43 in 10.0 mi NW 16.1 mph - N/A   Overcast
11:35 AM 35.6 °F 27.5 °F 24.8 °F 65% 30.43 in 10.0 mi NW 11.5 mph 21.9 mph N/A   Overcast
11:55 AM 37.4 °F 28.2 °F 24.8 °F 60% 30.43 in 10.0 mi NW 16.1 mph - N/A   Overcast
12:15 PM 37.4 °F 28.9 °F 24.8 °F 60% 30.42 in 10.0 mi NW 13.8 mph 20.7 mph N/A   Overcast
12:35 PM 37.4 °F 28.5 °F 24.8 °F 60% 30.42 in 10.0 mi NW 15.0 mph - N/A   Overcast
12:55 PM 37.4 °F 30.3 °F 24.8 °F 60% 30.42 in 10.0 mi NW 10.4 mph 19.6 mph N/A   Overcast
1:15 PM 37.4 °F 28.5 °F 24.8 °F 60% 30.42 in 10.0 mi NW 15.0 mph 20.7 mph N/A   Overcast
1:35 PM 37.4 °F 28.9 °F 24.8 °F 60% 30.42 in 10.0 mi WNW 13.8 mph 20.7 mph N/A   Overcast
1:55 PM 37.4 °F 29.3 °F 24.8 °F 60% 30.41 in 10.0 mi WNW 12.7 mph 18.4 mph N/A   Overcast
2:15 PM 37.4 °F 29.3 °F 23.0 °F 56% 30.41 in 10.0 mi WNW 12.7 mph - N/A   Overcast
2:35 PM 37.4 °F 29.3 °F 24.8 °F 60% 30.41 in 10.0 mi West 12.7 mph - N/A   Overcast
2:55 PM 37.4 °F 29.8 °F 26.6 °F 65% 30.40 in 10.0 mi WNW 11.5 mph - N/A   Overcast
3:15 PM 37.4 °F 29.8 °F 24.8 °F 60% 30.40 in 10.0 mi West 11.5 mph - N/A   Overcast
3:35 PM 37.4 °F 30.3 °F 26.6 °F 65% 30.39 in 10.0 mi West 10.4 mph - N/A   Overcast
3:55 PM 37.4 °F 28.9 °F 24.8 °F 60% 30.39 in 10.0 mi WNW 13.8 mph - N/A   Overcast
4:15 PM 37.4 °F 30.3 °F 24.8 °F 60% 30.39 in 10.0 mi WNW 10.4 mph 16.1 mph N/A   Overcast
4:35 PM 37.4 °F 29.3 °F 24.8 °F 60% 30.39 in 10.0 mi WNW 12.7 mph - N/A   Overcast
4:55 PM 37.4 °F 28.9 °F 24.8 °F 60% 30.39 in 10.0 mi WNW 13.8 mph - N/A   Overcast
5:15 PM 37.4 °F 30.3 °F 24.8 °F 60% 30.38 in 10.0 mi WNW 10.4 mph - N/A   Overcast
5:35 PM 35.6 °F 28.6 °F 24.8 °F 65% 30.38 in 10.0 mi WNW 9.2 mph - N/A   Overcast
5:55 PM 35.6 °F 28.0 °F 26.6 °F 70% 30.38 in 10.0 mi WNW 10.4 mph - N/A   Overcast
6:15 PM 35.6 °F 28.6 °F 26.6 °F 70% 30.38 in 10.0 mi WNW 9.2 mph - N/A   Overcast
6:35 PM 35.6 °F 30.7 °F 26.6 °F 70% 30.38 in 10.0 mi WNW 5.8 mph - N/A   Overcast
6:55 PM 35.6 °F 29.9 °F 26.6 °F 70% 30.38 in 10.0 mi WNW 6.9 mph - N/A   Overcast
7:15 PM 35.6 °F 29.2 °F 28.4 °F 75% 30.39 in 10.0 mi West 8.1 mph - N/A   Overcast
7:35 PM 35.6 °F 29.9 °F 26.6 °F 70% 30.39 in 10.0 mi West 6.9 mph - N/A   Overcast
7:55 PM 33.8 °F 27.0 °F 26.6 °F 75% 30.39 in 10.0 mi West 8.1 mph - N/A   Overcast
8:15 PM 33.8 °F 26.4 °F 26.6 °F 75% 30.39 in 10.0 mi West 9.2 mph - N/A   Overcast
8:35 PM 33.8 °F 27.0 °F 26.6 °F 75% 30.38 in 10.0 mi WNW 8.1 mph - N/A   Overcast
8:55 PM 33.8 °F 27.0 °F 26.6 °F 75% 30.38 in 10.0 mi West 8.1 mph - N/A   Overcast
9:15 PM 33.8 °F 26.4 °F 24.8 °F 70% 30.38 in 10.0 mi West 9.2 mph - N/A   Overcast
9:35 PM 33.8 °F 27.0 °F 24.8 °F 70% 30.38 in 10.0 mi West 8.1 mph - N/A   Overcast
9:55 PM 33.8 °F 27.7 °F 24.8 °F 70% 30.38 in 10.0 mi West 6.9 mph - N/A   Overcast
10:15 PM 33.8 °F 25.8 °F 23.0 °F 65% 30.37 in 10.0 mi West 10.4 mph - N/A   Overcast
10:35 PM 33.8 °F 27.0 °F 23.0 °F 65% 30.37 in 10.0 mi West 8.1 mph - N/A   Overcast
10:55 PM 33.8 °F 27.7 °F 24.8 °F 70% 30.38 in 10.0 mi West 6.9 mph - N/A   Overcast
11:35 PM 33.8 °F 28.6 °F 24.8 °F 70% 30.38 in 10.0 mi West 5.8 mph - N/A   Overcast
11:55 PM 33.8 °F 28.6 °F 26.6 °F 75% 30.37 in 10.0 mi West 5.8 mph - N/A   Overcast